7 * 24
多渠道服务支持
GEESAT-1 08 是一颗由学生团队设计和建造的教育型小卫星,主要用于地球观测和通信实验。该卫星搭载了高分辨率摄像头和数据传输系统,旨在支持环境监测和灾害预警。作为国际合作项目的一部分,GEESAT-1 08 有助于提升学生在航天工程、遥感和数据处理等领域的实践能力。卫星计划通过立方星平台发射,预计在轨运行两年,为学术研究和技术创新提供宝贵数据。
中国
(CN)
| 数据来源 | 国际轨道数据 |
| 星历时间: | 2025-10-28T21:19:26+0800 17小时前 查看轨道信息 |
| 半长轴: | 6951.609km |
| 偏心率: | 0.0003755 |
| 轨道倾角: | 49.992° |
| 近地点辐角 | 45.117° |
| 升交点赤经 | 200.980° |
| 平近点角 | 315.008° |
| 近地点: | 570.863km |
| 远地点: | 576.085km |
| 周期: | 96.136分钟 |
| 每日圈数: | 14.978724 |